HIMAWARI 3 (GMS 3)

导读

HIMAWARI 3(GMS 3)是日本于1984年8月2日发射的地球静止轨道气象卫星,属于日本第一代“向日葵”气象卫星系列。该卫星由日本电气公司独立研制,由日本气象厅与宇宙开发事业团联合运营,主要用于亚太地区气象数据收集分发,现已退役,为区域气象观测和预报提供了重要支撑。

Basic Information
目录编号:
15152
目录名称:
HIMAWARI 3 (GMS 3)
国际标识:
1984-080A
轨道中心:
EARTH
卫星名称:
HIMAWARI 3 (GMS 3)
卫星全名:
--
卫星状态:
在轨 (已飞行15290 天)
发射日期:
1984-08-02 UTC
国别 :
日本 (JP)
星等 :
--
Orbit Information
数据来源 国际轨道数据
星历时间: 2026-06-12T10:15:49+0800
23小时前
查看轨道信息
半长轴: 42288.811km
偏心率: 0.0006021
轨道倾角: 10.635°
近地点辐角 136.095°
升交点赤经 323.719°
平近点角 53.718°
近地点: 35885.211km
远地点: 35936.137km
周期: 1442.441分钟
每日圈数: 0.998308
Detailed Information
使用方式:
暂无
2D Orbit Map
3D Orbit Map
Orbit Altitude Analysis Chart
Orbit Inclination Analysis Chart
Orbit Comprehensive Analysis Chart
View Comprehensive Chart